EN

Hourly Weather Dzisna

Today, 20 October, Tuesday

Time Temperature Precipitation Wind Pressure Humidity
00:00 +6°C° 0 mm 2 mps 764 mmHg 90%
01:00 +4°C° 0 mm 3 mps 764 mmHg 90%
02:00 +4°C° 0 mm 3 mps 764 mmHg 91%
03:00 +4°C° 0 mm 3 mps 763 mmHg 92%
04:00 +4°C° 0 mm 3 mps 763 mmHg 93%
05:00 +4°C° 0 mm 3 mps 763 mmHg 93%
06:00 +4°C° 0 mm 3 mps 763 mmHg 92%
07:00 +5°C° 0 mm 4 mps 763 mmHg 92%
08:00 +6°C° 0 mm 4 mps 762 mmHg 84%
09:00 +7°C° 0 mm 5 mps 762 mmHg 77%
10:00 +9°C° 0 mm 5 mps 762 mmHg 70%
11:00 +9°C° 0 mm 6 mps 761 mmHg 68%
12:00 +10°C° 0 mm 6 mps 761 mmHg 65%
13:00 +10°C° 0 mm 6 mps 760 mmHg 63%
14:00 +10°C° 0 mm 6 mps 759 mmHg 65%
15:00 +10°C° 0 mm 6 mps 759 mmHg 67%
16:00 +10°C° 0 mm 5 mps 758 mmHg 68%
17:00 +10°C° 0 mm 5 mps 758 mmHg 71%
18:00 +9°C° 0 mm 5 mps 757 mmHg 73%
19:00 +9°C° 0 mm 5 mps 757 mmHg 75%
20:00 +9°C° 0.3 mm 5 mps 757 mmHg 79%
21:00 +9°C° 0.3 mm 5 mps 757 mmHg 82%
22:00 +10°C° 0.3 mm 4 mps 757 mmHg 85%
23:00 +9°C° 0.5 mm 5 mps 757 mmHg 87%

Tomorrow, 21 October, Wednesday

Time Temperature Precipitation Wind Pressure Humidity
00:00 +9°C° 0.5 mm 5 mps 757 mmHg 90%
01:00 +9°C° 0.5 mm 5 mps 757 mmHg 92%
02:00 +10°C° 0 mm 4 mps 757 mmHg 92%
03:00 +11°C° 0 mm 4 mps 757 mmHg 92%
04:00 +11°C° 0 mm 4 mps 756 mmHg 92%
05:00 +11°C° 0.1 mm 4 mps 756 mmHg 92%
06:00 +11°C° 0.1 mm 4 mps 756 mmHg 93%
07:00 +11°C° 0.1 mm 4 mps 756 mmHg 94%
08:00 +11°C° 0.1 mm 4 mps 756 mmHg 91%
09:00 +11°C° 0.1 mm 4 mps 756 mmHg 89%
10:00 +11°C° 0.1 mm 4 mps 756 mmHg 87%
11:00 +10°C° 0 mm 5 mps 756 mmHg 84%
12:00 +10°C° 0 mm 5 mps 756 mmHg 82%
13:00 +12°C° 0 mm 5 mps 755 mmHg 79%
14:00 +12°C° 0 mm 5 mps 755 mmHg 78%
15:00 +12°C° 0 mm 5 mps 755 mmHg 76%
16:00 +12°C° 0 mm 5 mps 754 mmHg 75%
17:00 +12°C° 0 mm 5 mps 754 mmHg 74%
18:00 +13°C° 0 mm 5 mps 754 mmHg 73%
19:00 +13°C° 0 mm 6 mps 754 mmHg 72%
20:00 +13°C° 0 mm 6 mps 754 mmHg 69%
21:00 +14°C° 0 mm 7 mps 754 mmHg 66%
22:00 +14°C° 0 mm 7 mps 754 mmHg 63%
23:00 +14°C° 0 mm 7 mps 755 mmHg 66%

Day after tomorrow, 22 October, Thursday

Time Temperature Precipitation Wind Pressure Humidity
00:00 +12°C° 0 mm 7 mps 755 mmHg 69%
01:00 +13°C° 0 mm 6 mps 755 mmHg 71%
02:00 +13°C° 0 mm 6 mps 755 mmHg 75%
03:00 +11°C° 0 mm 6 mps 756 mmHg 78%
04:00 +12°C° 0 mm 5 mps 756 mmHg 81%
05:00 +12°C° 0 mm 5 mps 756 mmHg 83%
06:00 +12°C° 0 mm 5 mps 756 mmHg 84%
07:00 +10°C° 0 mm 5 mps 756 mmHg 86%
08:00 +13°C° 0 mm 5 mps 756 mmHg 81%
09:00 +14°C° 0 mm 5 mps 756 mmHg 76%
10:00 +15°C° 0 mm 5 mps 756 mmHg 72%
11:00 +16°C° 0 mm 5 mps 756 mmHg 70%
12:00 +17°C° 0 mm 5 mps 756 mmHg 68%
13:00 +19°C° 0 mm 5 mps 756 mmHg 66%
14:00 +17°C° 0 mm 5 mps 755 mmHg 67%
15:00 +17°C° 0 mm 5 mps 755 mmHg 69%
16:00 +18°C° 0 mm 4 mps 755 mmHg 71%
17:00 +16°C° 0 mm 5 mps 754 mmHg 72%
18:00 +16°C° 0 mm 5 mps 754 mmHg 73%
19:00 +15°C° 0 mm 5 mps 754 mmHg 74%
20:00 +15°C° 0 mm 5 mps 754 mmHg 73%
21:00 +15°C° 0 mm 5 mps 754 mmHg 72%
22:00 +15°C° 0 mm 6 mps 753 mmHg 70%
23:00 +15°C° 0 mm 6 mps 753 mmHg 73%

23 October, Friday

Time Temperature Precipitation Wind Pressure Humidity
00:00 +15°C° 0 mm 6 mps 753 mmHg 75%
01:00 +14°C° 0 mm 6 mps 753 mmHg 77%
02:00 +14°C° 0 mm 6 mps 753 mmHg 79%
03:00 +14°C° 0 mm 6 mps 753 mmHg 80%
04:00 +14°C° 0 mm 6 mps 753 mmHg 81%
05:00 +14°C° 0.1 mm 6 mps 753 mmHg 81%
06:00 +14°C° 0.1 mm 6 mps 752 mmHg 82%
07:00 +13°C° 0.1 mm 6 mps 752 mmHg 82%
08:00 +14°C° 0.1 mm 7 mps 752 mmHg 78%
09:00 +13°C° 0.1 mm 8 mps 753 mmHg 73%
10:00 +15°C° 0.1 mm 8 mps 753 mmHg 69%
11:00 +13°C° 0.1 mm 8 mps 753 mmHg 70%
12:00 +13°C° 0.1 mm 8 mps 753 mmHg 71%
13:00 +13°C° 0.1 mm 8 mps 754 mmHg 72%
14:00 +14°C° 0 mm 7 mps 754 mmHg 71%
15:00 +12°C° 0 mm 7 mps 754 mmHg 70%
16:00 +13°C° 0 mm 6 mps 754 mmHg 69%
17:00 +13°C° 0 mm 6 mps 755 mmHg 68%
18:00 +11°C° 0 mm 6 mps 755 mmHg 66%
19:00 +11°C° 0 mm 6 mps 755 mmHg 65%
20:00 +11°C° 0 mm 6 mps 755 mmHg 66%
21:00 +11°C° 0 mm 6 mps 755 mmHg 66%
22:00 +10°C° 0 mm 5 mps 756 mmHg 67%
23:00 +10°C° 0 mm 6 mps 755 mmHg 69%

24 October, Saturday

Time Temperature Precipitation Wind Pressure Humidity
00:00 +9°C° 0 mm 6 mps 755 mmHg 71%
01:00 +9°C° 0 mm 6 mps 755 mmHg 73%
02:00 +9°C° 0.4 mm 6 mps 755 mmHg 77%
03:00 +9°C° 0.4 mm 7 mps 755 mmHg 81%
04:00 +9°C° 0.4 mm 7 mps 754 mmHg 85%
05:00 +9°C° 0.6 mm 8 mps 754 mmHg 83%
06:00 +9°C° 0.6 mm 8 mps 754 mmHg 81%
07:00 +9°C° 0.6 mm 8 mps 755 mmHg 79%
08:00 +9°C° 0.1 mm 8 mps 755 mmHg 76%
09:00 +10°C° 0.1 mm 8 mps 756 mmHg 73%
10:00 +10°C° 0.1 mm 9 mps 757 mmHg 71%
11:00 +10°C° 0.1 mm 9 mps 757 mmHg 70%
12:00 +10°C° 0.1 mm 8 mps 758 mmHg 68%
13:00 +10°C° 0.1 mm 8 mps 758 mmHg 67%
14:00 +10°C° 0.2 mm 7 mps 758 mmHg 69%
15:00 +10°C° 0.2 mm 7 mps 759 mmHg 71%
16:00 +9°C° 0.2 mm 6 mps 759 mmHg 72%
17:00 +9°C° 0 mm 6 mps 759 mmHg 74%
18:00 +9°C° 0 mm 6 mps 760 mmHg 77%
19:00 +8°C° 0 mm 5 mps 760 mmHg 79%
20:00 +8°C° 0 mm 5 mps 761 mmHg 80%
21:00 +7°C° 0 mm 5 mps 761 mmHg 82%
22:00 +7°C° 0 mm 5 mps 762 mmHg 84%
23:00 +7°C° 0 mm 4 mps 762 mmHg 86%

25 October, Sunday

Time Temperature Precipitation Wind Pressure Humidity
00:00 +6°C° 0 mm 4 mps 762 mmHg 88%
01:00 +6°C° 0 mm 4 mps 762 mmHg 89%
02:00 +7°C° 0 mm 3 mps 762 mmHg 90%
03:00 +5°C° 0 mm 3 mps 762 mmHg 91%
04:00 +5°C° 0 mm 3 mps 762 mmHg 93%
05:00 +5°C° 0 mm 3 mps 762 mmHg 92%
06:00 +4°C° 0 mm 3 mps 762 mmHg 92%
07:00 +4°C° 0 mm 3 mps 762 mmHg 92%
08:00 +7°C° 0 mm 3 mps 762 mmHg 85%
09:00 +8°C° 0 mm 3 mps 762 mmHg 79%
10:00 +8°C° 0 mm 4 mps 762 mmHg 72%
11:00 +11°C° 0 mm 4 mps 762 mmHg 69%
12:00 +12°C° 0 mm 4 mps 762 mmHg 66%
13:00 +13°C° 0 mm 4 mps 761 mmHg 63%
14:00 +12°C° 0 mm 4 mps 761 mmHg 68%
15:00 +12°C° 0 mm 3 mps 761 mmHg 73%
16:00 +12°C° 0 mm 3 mps 760 mmHg 77%
17:00 +11°C° 0 mm 3 mps 760 mmHg 81%
18:00 +10°C° 0 mm 3 mps 760 mmHg 84%
19:00 +9°C° 0 mm 3 mps 760 mmHg 88%
20:00 +9°C° 0 mm 3 mps 760 mmHg 87%
21:00 +7°C° 0 mm 4 mps 760 mmHg 87%
22:00 +7°C° 0 mm 4 mps 760 mmHg 86%
23:00 +7°C° 0 mm 4 mps 760 mmHg 86%

26 October, Monday

Time Temperature Precipitation Wind Pressure Humidity
00:00 +7°C° 0 mm 4 mps 760 mmHg 85%
01:00 +7°C° 0 mm 4 mps 759 mmHg 84%
02:00 +6°C° 0 mm 4 mps 759 mmHg 86%
03:00 +6°C° 0 mm 4 mps 759 mmHg 87%
04:00 +6°C° 0 mm 4 mps 759 mmHg 88%
05:00 +6°C° 0 mm 4 mps 759 mmHg 88%
06:00 +6°C° 0 mm 4 mps 758 mmHg 89%
07:00 +6°C° 0 mm 4 mps 758 mmHg 89%
08:00 +7°C° 0 mm 4 mps 758 mmHg 85%
09:00 +9°C° 0 mm 5 mps 758 mmHg 80%
10:00 +10°C° 0 mm 5 mps 758 mmHg 75%
11:00 +12°C° 0 mm 4 mps 758 mmHg 73%
12:00 +12°C° 0 mm 4 mps 758 mmHg 71%
13:00 +13°C° 0 mm 4 mps 758 mmHg 69%
14:00 +13°C° 0 mm 3 mps 757 mmHg 72%
15:00 +12°C° 0 mm 3 mps 757 mmHg 75%
16:00 +13°C° 0 mm 2 mps 757 mmHg 78%
17:00 +12°C° 0 mm 2 mps 758 mmHg 80%
18:00 +10°C° 0 mm 3 mps 758 mmHg 83%
19:00 +9°C° 0 mm 3 mps 758 mmHg 85%
20:00 +9°C° 0 mm 3 mps 758 mmHg 87%
21:00 +8°C° 0 mm 2 mps 759 mmHg 89%
22:00 +8°C° 0 mm 2 mps 759 mmHg 90%
23:00 +8°C° 0 mm 2 mps 759 mmHg 91%
Show more